Flag for Canada Weather past 2 weeks in Stonewall, Manitoba, Canada

Now
39 °F

Passing clouds.


Feels Like: 31 °F
Forecast: 40 / 57 °F
Wind: 14 mph from Southeast

Location: Winnipeg Int. Airportman.

Current Time: Apr 1, 2015 at 5:37:17 AM

Latest Report: Apr 1, 2015 at 5:00 AM


Visibility: 15 mi

Pressure: 29.62 "Hg

Humidity: 70%

Dew point: 30 °F

Location of StonewallLocation

Historic Weather in Stonewall — Graph

°F

Stonewall temperature yesterday

Maximum temperature yesterday: 54 °F (at 4:00 PM)
Minimum temperature yesterday: 28 °F (at 6:00 AM)
Average temperature yesterday: 40 °F

Past Weeks' High & Low Weather Summary

 TemperatureHumidityPressure
High54 °F (Mar 31, 4:00 PM)100% (Mar 25, 2:00 AM)30.50 "Hg (Mar 25, 2:00 AM)
Low5 °F (Mar 21, 6:00 AM)32% (Mar 22, 4:00 PM)29.46 "Hg (Mar 29, 2:00 AM)
Average31 °F71%30.10 "Hg
* Reported Mar 17 4:00 AM — Apr 1 4:00 AM, Stonewall, Weather by CustomWeather, © 2015

Note: Actual official high and low records may vary slightly from our data, if they occured in-between our weather recording intervals... More about our weather records

Advertising

Stonewall weather history for previous 24 hours

 ConditionsComfort  
Time TempWeatherWind HumidityBarometerVisibility
4:00 AM
Wed, Apr 1
39 °FPassing clouds.14 mph70%29.66 "Hg15 mi
3:00 AM39 °FPassing clouds.14 mph75%29.70 "Hg15 mi
2:00 AM39 °FPassing clouds.15 mph75%29.73 "Hg15 mi
1:00 AM39 °FPassing clouds.10 mph70%29.75 "Hg15 mi
12:00 AM41 °FPassing clouds.10 mph66%29.79 "Hg15 mi
11:00 PM
Tue, Mar 31
39 °FPassing clouds.9 mph75%29.81 "Hg15 mi
10:00 PM41 °FPassing clouds.12 mph76%29.83 "Hg15 mi
9:00 PM41 °FPassing clouds.7 mph76%29.86 "Hg15 mi
8:00 PM43 °FBroken clouds.7 mph76%29.86 "Hg15 mi
7:00 PM46 °FPartly sunny.13 mph66%29.86 "Hg15 mi
6:00 PM50 °FPartly sunny.10 mph62%29.87 "Hg15 mi
5:00 PM54 °FPartly sunny.6 mph54%29.87 "Hg15 mi
4:00 PM54 °FPartly sunny.2 mph51%29.90 "Hg15 mi
3:00 PM52 °FPartly sunny.12 mph54%29.91 "Hg15 mi
2:00 PM50 °FPartly sunny.7 mph58%29.92 "Hg15 mi
1:00 PM48 °FPassing clouds.8 mph58%29.93 "Hg15 mi
12:00 PM46 °FPassing clouds.8 mph66%29.94 "Hg15 mi
11:00 AM43 °FPassing clouds.8 mph76%29.95 "Hg15 mi
10:00 AM39 °FPassing clouds.9 mph87%29.95 "Hg15 mi
9:00 AM36 °FPassing clouds.8 mph93%29.94 "Hg15 mi
8:00 AM30 °FPassing clouds.5 mph100%29.93 "Hg15 mi
7:00 AM28 °FClear.2 mph100%29.92 "Hg15 mi
6:00 AM28 °FClear.2 mph100%29.90 "Hg15 mi
5:00 AM32 °FClear.3 mph93%29.89 "Hg15 mi
Weather by CustomWeather, © 2015

See weather overviewHow to use our weather pages